SAS99A ENVA-EKCH

Flight info

Callsign SAS99A
Flight time 1h 22m
Altitude 35000
Route EVNEN1A EVNEN DCT ABUNO DCT TOPLA L996 ERNOV ERNOV3A
Aircraft A320/M-SDE3FGHIRWY/LB1

Departure

Time 2026-05-07 09:07
Airport Trondheim Airport, Værnes (ENVA)

Arrival

Time 2026-05-07 10:30
Airport Copenhagen Kastrup Airport (EKCH)
Time Latitude Longitude Altitude Speed Heading
2026-05-07 08:45 63.45497 10.91825 39 ft 0 kts 180°
2026-05-07 09:00 63.45506 10.91825 39 ft 4 kts 181°
2026-05-07 09:00 63.45533 10.91827 39 ft 4 kts 184°
2026-05-07 09:00 63.45559 10.91833 39 ft 4 kts 191°
2026-05-07 09:00 63.45585 10.91850 39 ft 4 kts 217°
2026-05-07 09:01 63.45595 10.91879 34 ft 0 kts 270°
2026-05-07 09:02 63.45595 10.91853 39 ft 6 kts 270°
2026-05-07 09:03 63.45596 10.91707 39 ft 11 kts 270°
2026-05-07 09:03 63.45596 10.91502 39 ft 16 kts 270°
2026-05-07 09:03 63.45596 10.91235 36 ft 19 kts 270°
2026-05-07 09:03 63.45596 10.90913 35 ft 22 kts 270°
2026-05-07 09:04 63.45597 10.90563 34 ft 24 kts 271°
2026-05-07 09:04 63.45599 10.90182 32 ft 26 kts 270°
2026-05-07 09:04 63.45598 10.89774 29 ft 27 kts 270°
2026-05-07 09:04 63.45600 10.89404 29 ft 23 kts 270°
2026-05-07 09:05 63.45600 10.89034 29 ft 22 kts 269°
2026-05-07 09:05 63.45616 10.88799 29 ft 13 kts 297°
2026-05-07 09:05 63.45677 10.88680 29 ft 11 kts 343°
2026-05-07 09:05 63.45745 10.88682 29 ft 9 kts 22°
2026-05-07 09:06 63.45766 10.88791 29 ft 7 kts 90°
2026-05-07 09:06 63.45765 10.89052 29 ft 46 kts 90°
2026-05-07 09:06 63.45762 10.90332 32 ft 115 kts 90°
2026-05-07 09:06 63.45761 10.92537 53 ft 165 kts 91°
2026-05-07 09:07 63.45754 10.95176 591 ft 171 kts 90°
2026-05-07 09:07 63.45746 10.97872 1308 ft 176 kts 92°
2026-05-07 09:07 63.45732 11.00775 1798 ft 198 kts 92°
2026-05-07 09:07 63.45720 11.04032 2208 ft 222 kts 91°
2026-05-07 09:08 63.45709 11.07599 2985 ft 232 kts 91°
2026-05-07 09:08 63.45699 11.11248 3982 ft 237 kts 92°
2026-05-07 09:08 63.45686 11.14964 4914 ft 240 kts 91°
2026-05-07 09:08 63.45673 11.18719 5759 ft 243 kts 91°
2026-05-07 09:09 63.45661 11.22518 6703 ft 246 kts 91°
2026-05-07 09:09 63.45647 11.26371 7610 ft 249 kts 91°
2026-05-07 09:09 63.45482 11.30218 8456 ft 251 kts 108°
2026-05-07 09:09 63.44710 11.33692 9288 ft 251 kts 131°
2026-05-07 09:10 63.43370 11.36313 9753 ft 267 kts 154°
2026-05-07 09:10 63.41571 11.37690 10255 ft 280 kts 168°
2026-05-07 09:10 63.39612 11.38875 10574 ft 304 kts 167°
2026-05-07 09:10 63.37508 11.40197 10986 ft 322 kts 166°
2026-05-07 09:11 63.36072 11.41116 11453 ft 327 kts 166°
2026-05-07 09:11 63.33868 11.42541 12254 ft 331 kts 166°
2026-05-07 09:11 63.30916 11.44457 13313 ft 337 kts 165°
2026-05-07 09:11 63.28650 11.45925 14052 ft 341 kts 166°
2026-05-07 09:12 63.27105 11.46923 14514 ft 343 kts 166°
2026-05-07 09:12 63.24825 11.48389 15182 ft 347 kts 166°
2026-05-07 09:12 63.22490 11.49878 15860 ft 351 kts 166°
2026-05-07 09:12 63.20125 11.51380 16530 ft 355 kts 166°
2026-05-07 09:13 63.17728 11.52904 17207 ft 359 kts 166°
2026-05-07 09:13 63.15309 11.54439 17863 ft 364 kts 166°
2026-05-07 09:13 63.12866 11.55984 18473 ft 368 kts 166°
2026-05-07 09:13 63.10391 11.57544 19019 ft 372 kts 167°
2026-05-07 09:14 63.07885 11.59120 19553 ft 376 kts 167°
2026-05-07 09:14 63.05357 11.60710 20092 ft 380 kts 167°
2026-05-07 09:14 63.02797 11.62323 20618 ft 384 kts 167°
2026-05-07 09:14 63.00209 11.63898 21124 ft 387 kts 171°
2026-05-07 09:15 62.97548 11.64870 21625 ft 389 kts 176°
2026-05-07 09:15 62.94857 11.65701 22140 ft 392 kts 176°
2026-05-07 09:15 62.92141 11.66530 22631 ft 396 kts 176°
2026-05-07 09:15 62.89399 11.67359 23111 ft 400 kts 177°
2026-05-07 09:16 62.86639 11.68191 23573 ft 403 kts 177°
2026-05-07 09:16 62.83843 11.69038 23962 ft 407 kts 177°
2026-05-07 09:16 62.81026 11.69900 24356 ft 410 kts 177°
2026-05-07 09:16 62.78198 11.70768 24749 ft 412 kts 177°
2026-05-07 09:17 62.75342 11.71646 25136 ft 415 kts 177°
2026-05-07 09:17 62.72475 11.72522 25524 ft 418 kts 177°
2026-05-07 09:17 62.69582 11.73401 25909 ft 421 kts 177°
2026-05-07 09:17 62.66671 11.74285 26283 ft 423 kts 178°
2026-05-07 09:18 62.63747 11.75168 26650 ft 426 kts 178°
2026-05-07 09:18 62.60837 11.76042 27011 ft 429 kts 178°
2026-05-07 09:18 62.57875 11.76926 27380 ft 431 kts 178°
2026-05-07 09:18 62.54856 11.77833 27743 ft 434 kts 178°
2026-05-07 09:19 62.51890 11.78725 28098 ft 437 kts 178°
2026-05-07 09:19 62.48871 11.79633 28454 ft 440 kts 178°
2026-05-07 09:19 62.45827 11.80545 28809 ft 443 kts 178°
2026-05-07 09:19 62.42770 11.81455 29142 ft 445 kts 178°
2026-05-07 09:20 62.39686 11.82371 29474 ft 448 kts 178°
2026-05-07 09:20 62.36591 11.83290 29812 ft 451 kts 178°
2026-05-07 09:20 62.33472 11.84216 30137 ft 453 kts 178°
2026-05-07 09:20 62.30344 11.85143 30385 ft 456 kts 178°
2026-05-07 09:21 62.27193 11.86073 30629 ft 458 kts 178°
2026-05-07 09:21 62.24035 11.87007 30872 ft 460 kts 178°
2026-05-07 09:21 62.20865 11.87942 31127 ft 461 kts 178°
2026-05-07 09:21 62.17674 11.88876 31381 ft 463 kts 178°
2026-05-07 09:22 62.14475 11.89810 31703 ft 463 kts 178°
2026-05-07 09:22 62.11291 11.90741 32090 ft 462 kts 178°
2026-05-07 09:22 62.08111 11.91669 32472 ft 461 kts 178°
2026-05-07 09:22 62.04934 11.92595 32845 ft 460 kts 178°
2026-05-07 09:23 62.01770 11.93519 33215 ft 459 kts 178°
2026-05-07 09:23 61.98605 11.94183 33572 ft 454 kts 183°
2026-05-07 09:23 61.95456 11.94477 33951 ft 453 kts 183°
2026-05-07 09:23 61.92305 11.94769 34273 ft 452 kts 183°
2026-05-07 09:24 61.89160 11.95063 34571 ft 452 kts 183°
2026-05-07 09:24 61.86023 11.95355 34840 ft 452 kts 183°
2026-05-07 09:24 61.82877 11.95649 35029 ft 453 kts 183°
2026-05-07 09:24 61.79747 11.95943 35070 ft 448 kts 183°
2026-05-07 09:25 61.73548 11.96531 35074 ft 445 kts 183°
2026-05-07 09:25 61.67408 11.97087 35070 ft 444 kts 183°
2026-05-07 09:26 61.61194 11.97654 35077 ft 444 kts 183°
2026-05-07 09:26 61.55062 11.98222 35073 ft 444 kts 183°
2026-05-07 09:27 61.48892 11.98802 35063 ft 444 kts 183°
2026-05-07 09:28 61.39634 11.99640 35065 ft 444 kts 184°
2026-05-07 09:28 61.33472 12.00189 35066 ft 444 kts 184°
2026-05-07 09:29 61.27296 12.00757 35060 ft 444 kts 184°
2026-05-07 09:29 61.21130 12.01322 35064 ft 443 kts 184°
2026-05-07 09:30 61.14957 12.01872 35062 ft 443 kts 184°
2026-05-07 09:30 61.08830 12.02421 35065 ft 443 kts 184°
2026-05-07 09:31 61.02664 12.02973 35068 ft 443 kts 184°
2026-05-07 09:31 60.96462 12.03521 35069 ft 443 kts 184°
2026-05-07 09:32 60.90340 12.04065 35070 ft 443 kts 184°
2026-05-07 09:32 60.84140 12.04619 35068 ft 443 kts 184°
2026-05-07 09:33 60.78027 12.05150 35064 ft 442 kts 184°
2026-05-07 09:33 60.71867 12.05679 35057 ft 442 kts 184°
2026-05-07 09:34 60.65723 12.06225 35059 ft 442 kts 184°
2026-05-07 09:34 60.59564 12.06772 35056 ft 442 kts 184°
2026-05-07 09:35 60.53407 12.07293 35046 ft 443 kts 185°
2026-05-07 09:35 60.47259 12.07824 35050 ft 443 kts 185°
2026-05-07 09:36 60.41088 12.08363 35042 ft 443 kts 185°
2026-05-07 09:36 60.34972 12.08886 35051 ft 443 kts 185°
2026-05-07 09:37 60.28792 12.09406 35044 ft 444 kts 185°
2026-05-07 09:37 60.22616 12.09922 35044 ft 444 kts 185°
2026-05-07 09:38 60.16435 12.10449 35040 ft 445 kts 185°
2026-05-07 09:38 60.10245 12.11010 35041 ft 446 kts 184°
2026-05-07 09:39 60.04039 12.11798 35035 ft 447 kts 183°
2026-05-07 09:39 59.97817 12.12697 35038 ft 448 kts 183°
2026-05-07 09:40 59.91599 12.13551 35039 ft 448 kts 184°
2026-05-07 09:40 59.85372 12.14332 35050 ft 448 kts 184°
2026-05-07 09:41 59.79192 12.15111 35050 ft 448 kts 183°
2026-05-07 09:41 59.72976 12.15920 35048 ft 447 kts 183°
2026-05-07 09:42 59.66762 12.16725 35051 ft 447 kts 183°
2026-05-07 09:42 59.60551 12.17525 35057 ft 447 kts 183°
2026-05-07 09:43 59.54346 12.18316 35061 ft 447 kts 183°
2026-05-07 09:43 59.48142 12.19098 35057 ft 446 kts 183°
2026-05-07 09:44 59.41945 12.19866 35053 ft 447 kts 184°
2026-05-07 09:44 59.35736 12.20653 35060 ft 446 kts 183°
2026-05-07 09:45 59.29540 12.21453 35060 ft 446 kts 183°
2026-05-07 09:45 59.23348 12.22230 35059 ft 445 kts 183°
2026-05-07 09:46 59.17208 12.22982 35057 ft 445 kts 183°
2026-05-07 09:46 59.11024 12.23746 35055 ft 445 kts 183°
2026-05-07 09:47 59.04849 12.24514 35051 ft 445 kts 183°
2026-05-07 09:47 58.98672 12.25283 35054 ft 445 kts 183°
2026-05-07 09:48 58.92492 12.26045 35056 ft 445 kts 183°
2026-05-07 09:48 58.86314 12.26798 35056 ft 445 kts 183°
2026-05-07 09:49 58.80137 12.27553 35057 ft 444 kts 182°
2026-05-07 09:49 58.73961 12.28306 35057 ft 444 kts 182°
2026-05-07 09:50 58.67795 12.29065 35059 ft 444 kts 182°
2026-05-07 09:50 58.61627 12.29813 35051 ft 444 kts 182°
2026-05-07 09:51 58.55501 12.30543 35062 ft 443 kts 182°
2026-05-07 09:51 58.49342 12.31279 35068 ft 443 kts 182°
2026-05-07 09:52 58.43179 12.32013 35062 ft 443 kts 182°
2026-05-07 09:52 58.37026 12.32746 35062 ft 443 kts 182°
2026-05-07 09:53 58.30863 12.33481 35061 ft 443 kts 182°
2026-05-07 09:53 58.24703 12.34210 35063 ft 443 kts 182°
2026-05-07 09:54 58.18579 12.34933 35065 ft 443 kts 182°
2026-05-07 09:54 58.12420 12.35653 35063 ft 443 kts 182°
2026-05-07 09:55 58.07211 12.36261 35063 ft 443 kts 182°
2026-05-07 09:55 58.01049 12.36971 35064 ft 443 kts 181°
2026-05-07 09:56 57.94897 12.37693 35053 ft 443 kts 181°
2026-05-07 09:56 57.88746 12.38410 35049 ft 443 kts 181°
2026-05-07 09:57 57.82623 12.39111 35043 ft 443 kts 181°
2026-05-07 09:57 57.76465 12.39819 35028 ft 443 kts 181°
2026-05-07 09:58 57.70262 12.40537 34699 ft 444 kts 181°
2026-05-07 09:58 57.67224 12.40891 34468 ft 444 kts 181°
2026-05-07 09:58 57.64132 12.41248 34221 ft 445 kts 181°
2026-05-07 09:58 57.61050 12.41604 33968 ft 444 kts 181°
2026-05-07 09:59 57.57969 12.41958 33686 ft 442 kts 181°
2026-05-07 09:59 57.54907 12.42305 33411 ft 440 kts 181°
2026-05-07 09:59 57.51856 12.42646 33128 ft 438 kts 181°
2026-05-07 09:59 57.48822 12.42984 32853 ft 436 kts 181°
2026-05-07 10:00 57.45810 12.43319 32598 ft 433 kts 181°
2026-05-07 10:00 57.42800 12.43655 32330 ft 431 kts 180°
2026-05-07 10:00 57.40820 12.43878 32151 ft 430 kts 180°
2026-05-07 10:00 57.37841 12.44216 31894 ft 428 kts 180°
2026-05-07 10:01 57.34880 12.44552 31631 ft 426 kts 180°
2026-05-07 10:01 57.31928 12.44885 31306 ft 422 kts 180°
2026-05-07 10:01 57.29009 12.45213 30786 ft 420 kts 180°
2026-05-07 10:01 57.26097 12.45539 30259 ft 417 kts 180°
2026-05-07 10:02 57.23203 12.45861 29701 ft 414 kts 180°
2026-05-07 10:02 57.20344 12.46181 29200 ft 410 kts 180°
2026-05-07 10:02 57.17517 12.46495 28707 ft 405 kts 180°
2026-05-07 10:02 57.14712 12.46806 28226 ft 401 kts 180°
2026-05-07 10:03 57.11949 12.47114 27767 ft 396 kts 180°
2026-05-07 10:03 57.09217 12.47418 27309 ft 391 kts 180°
2026-05-07 10:03 57.06510 12.47718 26862 ft 387 kts 180°
2026-05-07 10:03 57.03835 12.48015 26424 ft 383 kts 180°
2026-05-07 10:04 57.01187 12.48309 25988 ft 379 kts 180°
2026-05-07 10:04 56.98569 12.48597 25551 ft 375 kts 180°
2026-05-07 10:04 56.95974 12.48880 25113 ft 372 kts 180°
2026-05-07 10:04 56.93399 12.49158 24664 ft 369 kts 180°
2026-05-07 10:05 56.90844 12.49436 24223 ft 367 kts 180°
2026-05-07 10:05 56.88302 12.49717 23761 ft 365 kts 180°
2026-05-07 10:05 56.85776 12.49996 23251 ft 363 kts 180°
2026-05-07 10:05 56.83265 12.50273 22795 ft 359 kts 180°
2026-05-07 10:06 56.80782 12.50547 22352 ft 356 kts 180°
2026-05-07 10:06 56.78316 12.50819 21890 ft 353 kts 180°
2026-05-07 10:06 56.75869 12.51090 21441 ft 351 kts 180°
2026-05-07 10:06 56.73443 12.51354 20999 ft 349 kts 180°
2026-05-07 10:07 56.71026 12.51611 20562 ft 347 kts 180°
2026-05-07 10:07 56.68626 12.51865 20122 ft 345 kts 180°
2026-05-07 10:07 56.66232 12.52121 19690 ft 343 kts 180°
2026-05-07 10:07 56.63884 12.52377 19258 ft 342 kts 180°
2026-05-07 10:08 56.61514 12.52638 18834 ft 341 kts 180°
2026-05-07 10:08 56.59153 12.52895 18406 ft 340 kts 180°
2026-05-07 10:08 56.56796 12.53147 17933 ft 338 kts 180°
2026-05-07 10:08 56.54459 12.53398 17515 ft 336 kts 180°
2026-05-07 10:09 56.52130 12.53650 17100 ft 333 kts 179°
2026-05-07 10:09 56.49825 12.53899 16687 ft 331 kts 179°
2026-05-07 10:09 56.47531 12.54148 16269 ft 330 kts 179°
2026-05-07 10:09 56.45244 12.54394 15869 ft 329 kts 179°
2026-05-07 10:10 56.42961 12.54637 15464 ft 328 kts 179°
2026-05-07 10:10 56.40687 12.54875 15070 ft 327 kts 179°
2026-05-07 10:10 56.38414 12.55111 14662 ft 327 kts 179°
2026-05-07 10:10 56.36147 12.55348 14260 ft 326 kts 178°
2026-05-07 10:11 56.33883 12.55591 13852 ft 326 kts 178°
2026-05-07 10:11 56.31619 12.55833 13412 ft 325 kts 178°
2026-05-07 10:11 56.29367 12.56072 13009 ft 323 kts 178°
2026-05-07 10:11 56.27129 12.56311 12607 ft 321 kts 178°
2026-05-07 10:12 56.24894 12.56552 12196 ft 320 kts 178°
2026-05-07 10:12 56.23095 12.56745 11858 ft 320 kts 178°
2026-05-07 10:12 56.20880 12.56982 11444 ft 319 kts 177°
2026-05-07 10:12 56.18673 12.57215 11127 ft 315 kts 177°
2026-05-07 10:13 56.16548 12.57432 10999 ft 304 kts 178°
2026-05-07 10:13 56.14452 12.57539 10782 ft 299 kts 179°
2026-05-07 10:13 56.12389 12.57558 10616 ft 296 kts 180°
2026-05-07 10:13 56.10333 12.57543 10419 ft 295 kts 180°
2026-05-07 10:14 56.08287 12.57524 10211 ft 294 kts 180°
2026-05-07 10:14 56.06242 12.57513 10085 ft 294 kts 180°
2026-05-07 10:14 56.04199 12.57517 10005 ft 294 kts 179°
2026-05-07 10:14 56.02148 12.57531 9538 ft 295 kts 179°
2026-05-07 10:15 56.00106 12.57550 9253 ft 291 kts 179°
2026-05-07 10:15 55.98083 12.57570 9053 ft 290 kts 179°
2026-05-07 10:15 55.96070 12.57591 8848 ft 289 kts 179°
2026-05-07 10:15 55.94065 12.57614 8643 ft 288 kts 179°
2026-05-07 10:16 55.92068 12.57636 8441 ft 287 kts 179°
2026-05-07 10:16 55.90078 12.57656 8239 ft 286 kts 179°
2026-05-07 10:16 55.88093 12.57648 8038 ft 285 kts 183°
2026-05-07 10:16 55.86151 12.57031 7828 ft 284 kts 198°
2026-05-07 10:17 55.84297 12.55828 7638 ft 283 kts 200°
2026-05-07 10:17 55.82451 12.54621 7430 ft 282 kts 200°
2026-05-07 10:17 55.80605 12.53427 7237 ft 282 kts 200°
2026-05-07 10:17 55.78763 12.52236 7034 ft 281 kts 200°
2026-05-07 10:18 55.76952 12.51068 6842 ft 280 kts 200°
2026-05-07 10:18 55.75125 12.49891 6642 ft 279 kts 200°
2026-05-07 10:18 55.73298 12.48719 6442 ft 278 kts 200°
2026-05-07 10:18 55.71479 12.47554 6232 ft 278 kts 200°
2026-05-07 10:19 55.69663 12.46389 6041 ft 277 kts 200°
2026-05-07 10:19 55.67851 12.45227 5845 ft 276 kts 200°
2026-05-07 10:19 55.66048 12.44068 5648 ft 276 kts 200°
2026-05-07 10:19 55.64247 12.42910 5455 ft 275 kts 200°
2026-05-07 10:20 55.62452 12.41755 5261 ft 274 kts 200°
2026-05-07 10:20 55.60671 12.40544 5073 ft 273 kts 206°
2026-05-07 10:20 55.59080 12.38734 4895 ft 272 kts 220°
2026-05-07 10:20 55.57651 12.36527 4754 ft 272 kts 221°
2026-05-07 10:21 55.56226 12.34333 4594 ft 272 kts 221°
2026-05-07 10:21 55.54797 12.32141 4460 ft 271 kts 221°
2026-05-07 10:21 55.53645 12.30378 4337 ft 269 kts 221°
2026-05-07 10:21 55.52270 12.28277 4203 ft 255 kts 221°
2026-05-07 10:22 55.50956 12.26272 4057 ft 244 kts 221°
2026-05-07 10:22 55.49541 12.24687 3882 ft 257 kts 197°
2026-05-07 10:22 55.47768 12.24458 3692 ft 249 kts 166°
2026-05-07 10:22 55.46283 12.25749 3523 ft 240 kts 136°
2026-05-07 10:23 55.45132 12.27856 3374 ft 235 kts 127°
2026-05-07 10:23 55.44139 12.30066 3210 ft 226 kts 125°
2026-05-07 10:23 55.43430 12.32418 3083 ft 212 kts 102°
2026-05-07 10:23 55.43416 12.34904 3006 ft 198 kts 73°
2026-05-07 10:24 55.44026 12.36962 3000 ft 186 kts 47°
2026-05-07 10:24 55.44963 12.38465 3007 ft 176 kts 40°
2026-05-07 10:24 55.45878 12.39858 3016 ft 171 kts 40°
2026-05-07 10:24 55.46770 12.41221 3006 ft 169 kts 40°
2026-05-07 10:25 55.47655 12.42575 3003 ft 166 kts 40°
2026-05-07 10:25 55.48510 12.43885 2905 ft 160 kts 40°
2026-05-07 10:25 55.49344 12.45162 2725 ft 158 kts 41°
2026-05-07 10:25 55.50170 12.46429 2524 ft 157 kts 41°
2026-05-07 10:26 55.50991 12.47687 2311 ft 156 kts 41°
2026-05-07 10:26 55.51809 12.48943 2106 ft 156 kts 40°
2026-05-07 10:26 55.52626 12.50199 1890 ft 156 kts 41°
2026-05-07 10:26 55.53432 12.51438 1673 ft 155 kts 41°
2026-05-07 10:27 55.54235 12.52672 1483 ft 146 kts 41°
2026-05-07 10:27 55.54973 12.53808 1287 ft 136 kts 41°
2026-05-07 10:27 55.55676 12.54889 1097 ft 132 kts 41°
2026-05-07 10:27 55.56352 12.55931 871 ft 131 kts 41°
2026-05-07 10:28 55.57039 12.56990 668 ft 130 kts 40°
2026-05-07 10:28 55.57721 12.58042 472 ft 130 kts 40°
2026-05-07 10:28 55.58400 12.59088 285 ft 130 kts 40°
2026-05-07 10:28 55.59078 12.60136 111 ft 129 kts 40°
2026-05-07 10:29 55.59741 12.61148 27 ft 116 kts 40°
2026-05-07 10:29 55.60257 12.61948 26 ft 84 kts 41°
2026-05-07 10:29 55.60638 12.62541 32 ft 64 kts 41°
2026-05-07 10:30 55.61157 12.63345 27 ft 39 kts 41°
2026-05-07 10:30 55.61337 12.63621 31 ft 22 kts 42°
2026-05-07 10:30 55.61465 12.63688 24 ft 19 kts 357°
2026-05-07 10:30 55.61599 12.63676 24 ft 17 kts
2026-05-07 10:31 55.61689 12.63788 24 ft 17 kts 41°
2026-05-07 10:31 55.61788 12.63942 24 ft 21 kts 41°
2026-05-07 10:31 55.61904 12.64099 24 ft 22 kts 25°
2026-05-07 10:31 55.62047 12.64213 24 ft 22 kts 25°
2026-05-07 10:32 55.62182 12.64330 24 ft 20 kts 27°
2026-05-07 10:32 55.62299 12.64406 23 ft 15 kts 15°
2026-05-07 10:32 55.62402 12.64456 24 ft 16 kts 15°
2026-05-07 10:32 55.62479 12.64469 24 ft 10 kts
2026-05-07 10:33 55.62534 12.64494 24 ft 9 kts 15°
2026-05-07 10:33 55.62560 12.64508 24 ft 1 kts 16°
2026-05-07 10:33 55.62564 12.64510 24 ft 0 kts 16°